Notices

What's New in latest Release from April 7th, 2021:

- Updated Glossary, including Speed of Maximum Gust, and Total Hourly Precipitation

- Updated national and regional climate services offices contacts and prices information

- Addition of station inventory lists for 1981-2010, 1971-2000, and 1961-1990 Normals.

If you haven't already, please take our survey and provide feedback about our website: https://eccc.sondage-survey.ca/f/LanguageSelection.aspx?s=442ca660-fcf1-47c0-95a9-59707d6fd709

Hourly Data Report for May 27, 2020

MIRAMICHI RCS
NEW BRUNSWICK
Current Station Operator: ECCC - MSC

47°00'34.000" N
65°27'54.000" W
33.00 m
8100989
71744
ACQ

Download Data

Hourly Data (May 2020)
Hourly Data Report for May 27, 2020
TIME
LST
Temp Definition
°C
Dew Point Definition
°C
Rel Hum Definition
%
Precip. Amount Definition
mm

Wind Dir Definition
10's deg

Wind Spd Definition
km/h
Visibility Definition
km
Stn Press Definition
kPa
Hmdx Definition


Wind Chill Definition


Weather Definition


00:00 19.3 LegendMM LegendMM LegendMM 23 14   101.52     LegendNANA
01:00 18.9 LegendMM LegendMM LegendMM 24 6   101.49     LegendNANA
02:00 18.3 18.3 100 LegendMM 26 4   101.51     LegendNANA
03:00 18.2 18.2 100 LegendMM 0 1   101.50     LegendNANA
04:00 17.8 LegendMM LegendMM LegendMM 26 3   101.56     LegendNANA
05:00 17.4 LegendMM LegendMM LegendMM 24 3   101.64     LegendNANA
06:00 17.5 LegendMM LegendMM LegendMM 17 1   101.65     LegendNANA
07:00 17.9 LegendMM LegendMM LegendMM 0 1   101.71     LegendNANA
08:00 18.5 LegendMM LegendMM LegendMM 7 15   101.77     LegendNANA
09:00 19.3 17.9 92 LegendMM 9 13   101.74     LegendNANA
10:00 19.3 19.3 100 LegendMM 6 10   101.76     LegendNANA
11:00 20.7 19.5 93 LegendMM 6 11   101.75 28   LegendNANA
12:00 20.2 18.7 91 LegendMM 5 17   101.76 27   LegendNANA
13:00 18.3 17.2 93 LegendMM 5 16   101.77     LegendNANA
14:00 19.2 16.0 81 LegendMM 5 16   101.75     LegendNANA
15:00 17.8 16.2 90 LegendMM 6 16   101.70     LegendNANA
16:00 17.7 15.4 87 LegendMM 6 17   101.62     LegendNANA
17:00 16.6 14.1 85 LegendMM 5 15   101.58     LegendNANA
18:00 14.4 11.6 83 LegendMM 5 14   101.58     LegendNANA
19:00 12.4 11.0 91 LegendMM 6 11   101.57     LegendNANA
20:00 11.6 10.8 95 LegendMM 5 9   101.57     LegendNANA
21:00 11.5 11.0 97 LegendMM 5 6   101.56     LegendNANA
22:00 11.3 11.1 99 LegendMM 4 4   101.45     LegendNANA
23:00 11.3 11.3 100 LegendMM 4 4   101.44     LegendNANA

Notes on Data Quality.

Legend

  • E = Estimated
  • M = Missing
  • NA = Not Available*
  • [empty] = Indicates an unobserved value
Date modified: